| time (UTC) | temp F | wind direction | speed MPH | gust MPH | rain 1hr in | rain 24hr in | rain mn in | humidity % | barometer mb |
| 20260831000030 | 77 | 210 | 0.0 | 0.0 | 0.00 | 0.00 | 0.00 | 81 | 1018.1 |
| 20260830234536 | 78 | 210 | 0.0 | 0.0 | 0.00 | 0.00 | 0.00 | 81 | 1017.9 |
| 20260830233025 | 78 | 210 | 0.0 | 0.0 | 0.00 | 0.00 | 0.00 | 82 | 1018.1 |
| 20260830231525 | 79 | 148 | 0.0 | 0.0 | 0.00 | 0.00 | 0.00 | 83 | 1018.4 |
| 20260830230024 | 79 | 148 | 0.0 | 0.0 | 0.00 | 0.00 | 0.00 | 82 | 1018.5 |
| 20260830224523 | 80 | 148 | 0.0 | 0.0 | 0.00 | 0.00 | 0.00 | 81 | 1018.4 |
| 20260830223023 | 81 | 148 | 0.0 | 0.0 | 0.00 | 0.00 | 0.00 | 79 | 1018.4 |
| 20260830221532 | 81 | 148 | 0.0 | 0.0 | 0.00 | 0.00 | 0.00 | 79 | 1018.2 |
| 20260830220021 | 81 | 148 | 0.0 | 2.0 | 0.00 | 0.00 | 0.00 | 78 | 1018.0 |
| 20260830214522 | 82 | 134 | 0.0 | 1.0 | 0.00 | 0.00 | 0.00 | 79 | 1018.0 |
| 20260830213019 | 82 | 220 | 0.0 | 1.0 | 0.00 | 0.00 | 0.00 | 78 | 1018.1 |
| 20260830211520 | 83 | 207 | 0.0 | 2.0 | 0.00 | 0.00 | 0.00 | 75 | 1018.3 |
| 20260830210017 | 85 | 211 | 0.0 | 2.0 | 0.00 | 0.00 | 0.00 | 71 | 1018.3 |
| 20260830204514 | 84 | 231 | 0.0 | 2.0 | 0.00 | 0.00 | 0.00 | 75 | 1018.2 |
| 20260830203013 | 84 | 205 | 0.0 | 2.0 | 0.00 | 0.00 | 0.00 | 75 | 1018.2 |
| 20260830201510 | 83 | 163 | 0.0 | 0.0 | 0.00 | 0.00 | 0.00 | 77 | 1018.2 |
| 20260830200022 | 83 | 208 | 0.0 | 1.0 | 0.00 | 0.00 | 0.00 | 75 | 1018.4 |
| 20260830194504 | 82 | 221 | 0.0 | 1.0 | 0.00 | 0.00 | 0.00 | 77 | 1018.8 |
| 20260830193003 | 81 | 190 | 0.0 | 3.0 | 0.00 | 0.00 | 0.00 | 80 | 1019.0 |
| 20260830191600 | 80 | 213 | 1.0 | 4.0 | 0.00 | 0.00 | 0.00 | 80 | 1019.3 |
| 20260830190126 | 80 | 213 | 0.0 | 2.0 | 0.00 | 0.00 | 0.00 | 80 | 1019.5 |
| 20260830184609 | 81 | 219 | 0.0 | 5.0 | 0.00 | 0.00 | 0.00 | 77 | 1019.6 |
| 20260830183102 | 81 | 213 | 0.0 | 4.0 | 0.00 | 0.00 | 0.00 | 80 | 1019.8 |
| 20260830181553 | 81 | 155 | 0.0 | 4.0 | 0.00 | 0.00 | 0.00 | 79 | 1019.9 |
| 20260830180048 | 80 | 231 | 1.0 | 4.0 | 0.00 | 0.00 | 0.00 | 81 | 1020.1 |
| 20260830174557 | 80 | 226 | 1.0 | 4.0 | 0.00 | 0.00 | 0.00 | 82 | 1020.4 |
| 20260830173043 | 80 | 209 | 1.0 | 5.0 | 0.00 | 0.00 | 0.00 | 83 | 1020.4 |
| 20260830171542 | 78 | 210 | 0.0 | 5.0 | 0.00 | 0.00 | 0.00 | 84 | 1020.6 |
| 20260830170037 | 78 | 257 | 1.0 | 5.0 | 0.00 | 0.00 | 0.00 | 85 | 1020.8 |
| 20260830164536 | 78 | 209 | 1.0 | 4.0 | 0.00 | 0.00 | 0.00 | 83 | 1020.8 |
| 20260830163037 | 78 | 229 | 0.0 | 4.0 | 0.00 | 0.00 | 0.00 | 83 | 1020.9 |
| 20260830161539 | 78 | 216 | 0.0 | 1.0 | 0.00 | 0.00 | 0.00 | 85 | 1020.9 |
| 20260830160040 | 78 | 208 | 1.0 | 4.0 | 0.00 | 0.00 | 0.00 | 84 | 1021.2 |
| 20260830154530 | 78 | 191 | 0.0 | 4.0 | 0.00 | 0.00 | 0.00 | 84 | 1021.2 |
| 20260830153029 | 77 | 276 | 0.0 | 3.0 | 0.00 | 0.00 | 0.00 | 86 | 1021.4 |
| 20260830151525 | 76 | 231 | 0.0 | 2.0 | 0.00 | 0.00 | 0.00 | 87 | 1021.5 |
| 20260830150022 | 76 | 229 | 0.0 | 4.0 | 0.00 | 0.00 | 0.00 | 87 | 1021.4 |
| 20260830144527 | 75 | 205 | 0.0 | 5.0 | 0.00 | 0.00 | 0.00 | 87 | 1021.4 |
| 20260830143019 | 75 | 183 | 1.0 | 6.0 | 0.00 | 0.00 | 0.00 | 90 | 1021.1 |
| 20260830141516 | 73 | 233 | 0.0 | 3.0 | 0.00 | 0.00 | 0.00 | 92 | 1021.3 |
| 20260830140012 | 72 | 195 | 0.0 | 2.0 | 0.00 | 0.00 | 0.00 | 93 | 1021.3 |
| 20260830134511 | 71 | 211 | 0.0 | 2.0 | 0.00 | 0.00 | 0.00 | 94 | 1021.5 |
| 20260830133005 | 71 | 233 | 0.0 | 2.0 | 0.00 | 0.00 | 0.00 | 95 | 1021.7 |
| 20260830131502 | 70 | 167 | 0.0 | 2.0 | 0.00 | 0.00 | 0.00 | 95 | 1021.9 |
| 20260830130001 | 70 | 245 | 0.0 | 1.0 | 0.00 | 0.00 | 0.00 | 95 | 1021.8 |
| 20260830124559 | 70 | 206 | 0.0 | 1.0 | 0.00 | 0.00 | 0.00 | 94 | 1022.0 |
| 20260830123058 | 69 | 219 | 0.0 | 2.0 | 0.00 | 0.00 | 0.00 | 94 | 1022.1 |
| 20260830121555 | 69 | 165 | 0.0 | 2.0 | 0.00 | 0.00 | 0.00 | 94 | 1022.3 |
| 20260830120058 | 68 | 213 | 0.0 | 2.0 | 0.00 | 0.00 | 0.00 | 93 | 1022.2 |
| 20260830114551 | 68 | 119 | 0.0 | 0.0 | 0.00 | 0.00 | 0.00 | 92 | 1022.1 |
| 20260830113052 | 67 | 143 | 0.0 | 0.0 | 0.00 | 0.00 | 0.00 | 92 | 1022.2 |
| 20260830111550 | 67 | 151 | 0.0 | 0.0 | 0.00 | 0.00 | 0.00 | 91 | 1022.2 |
| 20260830110049 | 66 | 233 | 0.0 | 1.0 | 0.00 | 0.00 | 0.00 | 91 | 1022.2 |
| 20260830104603 | 65 | 124 | 0.0 | 0.0 | 0.00 | 0.00 | 0.00 | 91 | 1022.1 |
| 20260830103047 | 65 | 124 | 0.0 | 0.0 | 0.00 | 0.00 | 0.00 | 90 | 1022.2 |
| 20260830101546 | 65 | 124 | 0.0 | 0.0 | 0.00 | 0.00 | 0.00 | 90 | 1022.1 |
| 20260830100045 | 65 | 124 | 0.0 | 0.0 | 0.00 | 0.00 | 0.00 | 88 | 1022.1 |
| 20260830094544 | 65 | 124 | 0.0 | 1.0 | 0.00 | 0.00 | 0.00 | 87 | 1022.2 |
| 20260830093045 | 65 | 115 | 0.0 | 0.0 | 0.00 | 0.00 | 0.00 | 87 | 1022.1 |
| 20260830091542 | 65 | 115 | 0.0 | 2.0 | 0.00 | 0.00 | 0.00 | 85 | 1022.1 |
| 20260830090040 | 65 | 125 | 0.0 | 0.0 | 0.00 | 0.00 | 0.00 | 84 | 1022.4 |
| 20260830084538 | 66 | 125 | 0.0 | 0.0 | 0.00 | 0.00 | 0.00 | 82 | 1022.4 |
| 20260830083053 | 66 | 125 | 0.0 | 1.0 | 0.00 | 0.00 | 0.00 | 79 | 1022.5 |
| 20260830081535 | 67 | 124 | 0.0 | 1.0 | 0.00 | 0.00 | 0.00 | 78 | 1022.5 |
| 20260830080034 | 67 | 121 | 0.0 | 3.0 | 0.00 | 0.00 | 0.00 | 77 | 1022.7 |
| 20260830074533 | 67 | 119 | 0.0 | 4.0 | 0.00 | 0.00 | 0.00 | 76 | 1022.7 |
| 20260830073031 | 67 | 124 | 0.0 | 2.0 | 0.00 | 0.00 | 0.00 | 76 | 1022.9 |
| 20260830071530 | 67 | 119 | 0.0 | 1.0 | 0.00 | 0.00 | 0.00 | 76 | 1023.0 |
| 20260830070029 | 67 | 181 | 0.0 | 3.0 | 0.00 | 0.00 | 0.00 | 74 | 1022.9 |
| 20260830064527 | 66 | 126 | 0.0 | 2.0 | 0.00 | 0.00 | 0.00 | 74 | 1022.9 |
| 20260830063025 | 66 | 170 | 0.0 | 1.0 | 0.00 | 0.00 | 0.00 | 74 | 1023.1 |
| 20260830061531 | 66 | 122 | 0.0 | 2.0 | 0.00 | 0.00 | 0.00 | 75 | 1023.1 |
| 20260830060027 | 65 | 131 | 0.0 | 1.0 | 0.00 | 0.00 | 0.00 | 77 | 1023.1 |
| 20260830054531 | 65 | 131 | 0.0 | 0.0 | 0.00 | 0.00 | 0.00 | 77 | 1023.3 |
| 20260830053026 | 65 | 131 | 0.0 | 1.0 | 0.00 | 0.00 | 0.00 | 76 | 1023.3 |
| 20260830051522 | 64 | 122 | 0.0 | 1.0 | 0.00 | 0.00 | 0.00 | 78 | 1023.1 |
| 20260830050021 | 64 | 121 | 0.0 | 1.0 | 0.00 | 0.00 | 0.00 | 80 | 1023.0 |
| 20260830044519 | 64 | 122 | 0.0 | 0.0 | 0.00 | 0.00 | 0.00 | 79 | 1023.2 |
| 20260830043020 | 65 | 122 | 0.0 | 0.0 | 0.00 | 0.00 | 0.00 | 78 | 1023.1 |
| 20260830041520 | 65 | 120 | 0.0 | 0.0 | 0.00 | 0.00 | 0.00 | 77 | 1022.9 |
| 20260830040012 | 66 | 120 | 0.0 | 1.0 | 0.00 | 0.00 | 0.00 | 75 | 1022.8 |
| 20260830034511 | 66 | 129 | 0.0 | 1.0 | 0.00 | 0.00 | 0.00 | 75 | 1022.8 |
| 20260830033010 | 66 | 122 | 0.0 | 1.0 | 0.00 | 0.00 | 0.00 | 75 | 1022.7 |
| 20260830031511 | 66 | 165 | 0.0 | 1.0 | 0.00 | 0.00 | 0.00 | 75 | 1023.0 |
| 20260830030010 | 66 | 133 | 0.0 | 0.0 | 0.00 | 0.00 | 0.00 | 75 | 1023.2 |
| 20260830024509 | 66 | 133 | 0.0 | 0.0 | 0.00 | 0.00 | 0.00 | 75 | 1023.1 |
| 20260830023009 | 66 | 133 | 0.0 | 0.0 | 0.00 | 0.00 | 0.00 | 75 | 1023.1 |
| 20260830021509 | 67 | 125 | 0.0 | 1.0 | 0.00 | 0.00 | 0.00 | 75 | 1022.9 |
| 20260830020008 | 67 | 122 | 0.0 | 1.0 | 0.00 | 0.00 | 0.00 | 74 | 1022.8 |
| 20260830014515 | 67 | 129 | 0.0 | 1.0 | 0.00 | 0.00 | 0.00 | 74 | 1022.9 |
| 20260830013007 | 66 | 135 | 0.0 | 1.0 | 0.00 | 0.00 | 0.00 | 76 | 1022.9 |
| 20260830011511 | 66 | 240 | 0.0 | 0.0 | 0.00 | 0.00 | 0.00 | 77 | 1022.9 |
| 20260830010009 | 66 | 240 | 0.0 | 0.0 | 0.00 | 0.00 | 0.00 | 74 | 1022.8 |
| 20260830004504 | 67 | 240 | 0.0 | 0.0 | 0.00 | 0.00 | 0.00 | 70 | 1022.5 |
| 20260830003004 | 68 | 240 | 0.0 | 0.0 | 0.00 | 0.00 | 0.00 | 68 | 1022.5 |
| 20260830001502 | 68 | 240 | 0.0 | 0.0 | 0.00 | 0.00 | 0.00 | 67 | 1022.2 |